Regional Weather Roundup
Issued by NWS Northern Indiana

Home | Current Version | Previous Version | Graphics & Text | Print | Product List | Glossary On
Versions: 1 2 3 4 5 6 7 8 9 10 11 12 13 14 15 16 17 18 19 20 21 22 23 24 25 26 27 28 29 30 31 32 33 34 35 36 37 38 39 40 41 42 43 44 45 46 47 48 49 50
000
ASUS43 KIWX 251310
RWRIWX

KIWX WEATHER ROUNDUP
NATIONAL WEATHER SERVICE NORTHERN INDIANA
900 AM EDT THU AUG 25 2016

NOTE: "FAIR" INDICATES FEW OR NO CLOUDS BELOW 12,000 FEET WITH NO
SIGNIFICANT WEATHER AND/OR OBSTRUCTIONS TO VISIBILITY.

* THESE STATIONS ARE NOT UNDER NWS QUALITY CONTROL. THEY ALSO MAY NOT
  REPORT WEATHER SUCH AS PRECIPITATION OR FOG.

INZ001>027-251400-
NORTHERN INDIANA

CITY           SKY/WX    TMP DP  RH WIND       PRES   REMARKS
GARY*          PTSUNNY   73  72  94 S3        30.00R
VALPARAISO     MOSUNNY   70  68  93 SW8       30.02S
MICHIGAN CITY* CLOUDY    72  72 100 MISG      30.00F
LAPORTE*       MOSUNNY  N/A N/A N/A S6        30.02S
KNOX*          MOSUNNY   70  59  68 CALM      30.02R
SOUTH BEND     CLOUDY    70  69  97 SW8       30.01R
ELKHART*       CLOUDY    72  68  88 SW6       30.02R
GOSHEN         CLOUDY    72  68  87 SW6       30.01R
MONTICELLO*    MOSUNNY   71  67  88 SW6       30.03R
LOGANSPORT*    PTSUNNY   72  70  94 SW6       30.04R
ROCHESTER*     MOSUNNY   73  73 100 SW8       30.03R
WARSAW*        CLOUDY    72  72 100 CALM      30.02R
ANGOLA*        SUNNY     73  66  78 SW3       30.01S
FORT WAYNE     CLOUDY    72  69  90 S7        30.02F
HUNTINGTON*    PTSUNNY  N/A N/A N/A S5        30.02S
PERU/GRISSOM   PTSUNNY   72  72 100 S8        30.01S
MARION*        CLOUDY    71  71 100 S6        30.04S

$$
INZ028>050-251400-
CENTRAL INDIANA

CITY           SKY/WX    TMP DP  RH WIND       PRES   REMARKS
LAFAYETTE      CLOUDY    70  70 100 W5        30.04R
MUNCIE*        CLOUDY    77  73  87 SW7       30.04F
INDIANAPOLIS   MOSUNNY   78  73  84 SW8       30.06R

$$
MIZ043>046-050>051-056>058-064>065-071>073-077>080-251400-
SOUTHWEST LOWER MICHIGAN

CITY           SKY/WX    TMP DP  RH WIND       PRES   REMARKS
BATTLE CREEK   MOSUNNY   71  71 100 SW7       29.99F
BENTON HARBOR  CLOUDY    74  70  87 SW10      29.98R
COLDWATER*     CLOUDY    73  72  97 SW5       30.01R
HILLSDALE*     MOSUNNY   73  70  88 CALM      30.01S
HOLLAND        MOSUNNY   74  72  93 CALM      29.97S
GRAND RAPIDS   CLOUDY    73  69  87 SW7       29.97S
KALAMAZOO      CLOUDY    73  69  87 SW6       29.98F
STURGIS*       CLOUDY    72  69  90 S5        29.99S
THREE RIVERS*  FAIR      72  71  97 SW5       30.00R

$$
OHZ001>008-015>018-024>025-251400-
NORTHWEST OHIO

CITY           SKY/WX    TMP DP  RH WIND       PRES   REMARKS
WAUSEON*       FAIR      72  70  94 W6        30.01F
DEFIANCE       CLOUDY    71  69  93 CALM      30.01F
FINDLAY        CLOUDY    75  71  87 S5        30.01F
TOLEDO EXPRESS CLOUDY    71  71 100 SW3       30.00F
TOLEDO METCALF CLOUDY    74  72  93 SW7       30.01F
LIMA           CLOUDY    74  73  97 SW3       30.04F

$$
AND FOR LAKE MICHIGAN COASTAL AND OPEN LAKE BUOY OBSERVATIONS

STATION/POSITION TEMP    WIND        PRES    VSBY  WAVE
                 AIR SEA DIR/SP/G                  HT/PER
                 (F)     (DEG/KT/KT) (MB)    (MI)  (FT/S)
CALUMET HARBOR    72     210/  5/  9 1014.8R
MICHIGAN CITY     71     190/ 13/ 15   N/A
BURNS HARBOR      72     200/ 11/ 17 1016.3R
SAINT JOSEPH      74     220/ 13/ 16 1015.9
SOUTH LAKE BUOY   72 74  350/  8/ 10 1014.3R         1/ 4
4 MI NW BRIDGMAN  74 74  220/ 12/ 16 1015.0R         3/ 4
MICHIGAN CITY     72 73  220/ 10/ 12   N/A           1/ 3

$$
&&




USA.gov is the U.S. government's official web portal to all federal, state and local government web resources and services.